South Bend, IN

12:28 PM EST on February 25, 2017 (GMT -0500)
South Bend Regional

Weather History for KSBN - April, 2014

Change the Weather History Date:

Monday, April 28, 2014

  Actual Average Record
Temperature  
Mean Temperature 52 °F 54 °F  
Max Temperature 56 °F 64 °F 83 °F (1899)
Min Temperature 47 °F 43 °F 25 °F (1907)
Degree Days  
Heating Degree Days 13 12  
Month to date heating degree days 453 466  
Since 1 July heating degree days 6712 6010  
Cooling Degree Days 0 0  
Month to date cooling degree days 2 0  
Year to date cooling degree days 2 1  
Growing Degree Days 2 (Base 50)    
Moisture  
Dew Point 38 °F    
Average Humidity 61    
Maximum Humidity 80    
Minimum Humidity 41    
Precipitation  
Precipitation 0.07 in 0.11 in 1.75 in (1951)
Month to date precipitation 2.24 3.00  
Year to date precipitation 9.87 9.66  
Snow  
Snow 0.00 in 0.00 in T in (1961)
Month to date snowfall 1.4  
Since 1 July snowfall 66.6  
Snow Depth -    
Sea Level Pressure  
Sea Level Pressure 29.76 in    
Wind  
Wind Speed 20 mph (East)    
Max Wind Speed 32 mph    
Max Gust Speed 42 mph    
Visibility 10 miles    
Events Rain    
T = Trace of Precipitation, MM = Missing Value Source: NWS Daily Summary

Daily Weather History Graph

Daily Weather History Graph

Search for Another Location

Airport or City:

Trip Planner

Search our weather history database for the weather conditions in past years. The results will help you decide how hot, cold, wet, or windy it might be!

Date:

Astronomy

Apr. 28, 2014 Rise Set
Actual Time 6:45 AM EDT 8:40 PM EDT
Civil Twilight 6:15 AM EDT 9:10 PM EDT
Nautical Twilight 5:39 AM EDT 9:47 PM EDT
Astronomical Twilight 5:00 AM EDT 10:26 PM EDT
Moon 6:24 AM EDT (4/28) 8:17 PM EDT (4/28)
Length of Visible Light 14h 54m
Length of Day
13h 54m
Waning Crescent, 0% of the Moon is Illuminated
Apr 28
Waning Crescent
Apr 29
New
May 6
First Quarter
May 14
Full
May 21
Last Quarter

Hourly Weather History & Observations

Time (EDT) Temp. Dew Point Humidity Pressure Visibility Wind Dir Wind Speed Gust Speed Precip Events Conditions
12:54 AM 51.1 °F 28.9 °F 43% 29.93 in 10.0 mi East 18.4 mph 28.8 mph N/A   Overcast
1:54 AM 50.0 °F 30.2 °F 47% 29.93 in 10.0 mi East 18.4 mph 28.8 mph N/A   Overcast
2:54 AM 50.0 °F 30.9 °F 48% 29.91 in 10.0 mi East 18.4 mph 31.1 mph N/A   Overcast
3:54 AM 50.0 °F 30.2 °F 47% 29.86 in 10.0 mi East 18.4 mph 26.5 mph N/A   Overcast
4:54 AM 50.0 °F 30.0 °F 46% 29.83 in 10.0 mi East 16.1 mph 25.3 mph N/A   Overcast
5:54 AM 50.0 °F 30.9 °F 48% 29.82 in 10.0 mi East 18.4 mph 28.8 mph N/A   Overcast
6:54 AM 50.0 °F 32.0 °F 50% 29.81 in 10.0 mi East 23.0 mph 29.9 mph N/A   Overcast
7:54 AM 50.0 °F 34.0 °F 54% 29.81 in 10.0 mi East 17.3 mph 24.2 mph 0.00 in Rain Light Rain
8:54 AM 50.0 °F 36.0 °F 59% 29.81 in 10.0 mi East 16.1 mph 23.0 mph 0.00 in Rain Light Rain
9:54 AM 48.0 °F 39.0 °F 71% 29.81 in 10.0 mi East 15.0 mph 23.0 mph 0.02 in Rain Light Rain
10:54 AM 48.0 °F 39.9 °F 74% 29.74 in 10.0 mi East 20.7 mph 34.5 mph 0.02 in   Overcast
11:54 AM 50.0 °F 39.0 °F 66% 29.74 in 10.0 mi East 23.0 mph 32.2 mph N/A   Overcast
12:54 PM 52.0 °F 39.0 °F 61% 29.75 in 10.0 mi ESE 19.6 mph 27.6 mph N/A   Overcast
1:54 PM 54.0 °F 42.1 °F 64% 29.73 in 10.0 mi ESE 20.7 mph 33.4 mph 0.00 in Rain Light Rain
2:23 PM 55.0 °F 42.1 °F 62% 29.72 in 10.0 mi ESE 29.9 mph 41.4 mph 0.00 in   Overcast
2:54 PM 55.0 °F 42.1 °F 62% 29.73 in 10.0 mi ESE 28.8 mph 40.3 mph 0.00 in   Overcast
3:54 PM 54.0 °F 43.0 °F 66% 29.75 in 10.0 mi ESE 23.0 mph 36.8 mph N/A   Overcast
4:54 PM 53.6 °F 44.6 °F 72% 29.71 in 10.0 mi ESE 25.3 mph 32.2 mph N/A   Overcast
5:54 PM 53.1 °F 44.1 °F 71% 29.68 in 10.0 mi East 21.9 mph 31.1 mph N/A   Overcast
6:54 PM 52.0 °F 43.0 °F 71% 29.68 in 10.0 mi East 19.6 mph 31.1 mph N/A   Overcast
7:54 PM 51.1 °F 42.1 °F 71% 29.68 in 10.0 mi East 21.9 mph 31.1 mph N/A   Overcast
8:54 PM 51.1 °F 42.1 °F 71% 29.66 in 10.0 mi East 21.9 mph 32.2 mph N/A   Overcast
9:54 PM 51.1 °F 42.1 °F 71% 29.66 in 10.0 mi East 19.6 mph 28.8 mph N/A   Overcast
10:43 PM 50.0 °F 43.0 °F 77% 29.65 in 10.0 mi East 17.3 mph 26.5 mph N/A   Overcast
10:54 PM 50.0 °F 43.0 °F 77% 29.68 in 10.0 mi ESE 20.7 mph 29.9 mph N/A   Overcast
11:54 PM 50.0 °F 45.0 °F 83% 29.65 in 8.0 mi ESE 18.4 mph 27.6 mph 0.03 in   Overcast